Regional Weather Roundup
Issued by NWS Midland/Odessa, TX

Skip options and go directly to product.
Home | Oldest Version | Next Version | Current Version | All | Text Only | Save Text | Print | Product List | Glossary On

Skip product version selection by date and time.   
896
ASUS44 KMAF 290301
RWRMAF
MIDLAND AREA WEATHER ROUNDUP
NATIONAL WEATHER SERVICE MIDLAND TX
1000 PM CDT THU APR 28 2016

...IN SOUTHWEST TEXAS AND SOUTHEAST NEW MEXICO...

CITY           SKY/WX    TMP DP  RH WIND       PRES   REMARKS
ALPINE         CLEAR     72  50  45 SE10      29.83R
ANDREWS        FAIR      74  54  49 S16G23    29.72R
ARTESIA        CLEAR     68  16  13 CALM      29.67S
BIG SPRING     CLEAR     73  55  54 SE20G25   29.74R
CARLSBAD       CLEAR     66  16  14 NE6       29.64R
DRYDEN           N/A     79  63  57 E15       29.68R
FORT STOCKTON  CLEAR     74  59  59 S23G33    29.70R
GUAD PASS      NOT AVBL
HOBBS          CLEAR     73  41  31 SE15      29.71R
MARFA          CLEAR     65  13  13 SE3       29.79F
MIDLAND AIRPK  CLEAR     77  56  49 SE16G25   29.72R
MIDLAND INTL   CLEAR     76  56  49 SE20G25   29.71R
ODESSA         CLEAR     76  55  48 SE15      29.72R
PECOS          CLEAR     80  56  42 E22G28    29.62R
PRESIDIO       FAIR      82  15   8 NE5       29.63S
SEMINOLE       CLEAR     74  51  43 SE17G25   29.72R
SNYDER           N/A     73  58  60 E10       29.76R
WINK           CLEAR     78  54  43 SE16      29.66R
$$
...OTHER STATIONS IN TEXAS...

CITY           SKY/WX    TMP DP  RH WIND       PRES   REMARKS
ABILENE        MOCLDY    72  61  68 SE13      29.77R
AMARILLO       CLEAR     60  53  77 E21       29.83R
AUSTIN         MOCLDY    78  73  84 SE8       29.76R
BROWNSVILLE    CLOUDY    80  77  90 SE9       29.70S
CORPUS CHRISTI CLOUDY    79  73  82 SE16      29.75R
DALLAS FTW     PTCLDY    76  59  55 E7        29.80S
DEL RIO        CLEAR     79  71  76 E12       29.67R
EL PASO        CLEAR     74  21  13 W20G28    29.71R
HOUSTON INT    CLOUDY    76  72  87 SE16      29.82R
LUBBOCK        CLEAR     72  51  47 SE18G28   29.74R
SAN ANGELO     CLEAR     72  63  73 SE8       29.72R
SAN ANTONIO    CLOUDY    77  72  84 SE18      29.76R
WACO           LGT RAIN  78  66  66 SE13      29.77R
WICHITA FALLS  NOT AVBL
$$
...OTHER LOCATIONS IN NEW MEXICO...

CITY           SKY/WX    TMP DP  RH WIND       PRES   REMARKS
ALAMAGORDO     CLEAR     63  19  19 S8        29.71R
ALBUQUERQUE    MOCLDY    66   6   9 S10       29.73R
CANNON AFB     NOT AVBL
CLOVIS         CLEAR     61  50  67 E14G20    29.77R
HOLLOMAN AFB   NOT AVBL
ROSWELL        CLEAR     70  14  11 W9        29.66F
RUIDOSO          N/A     55  14  19 S7        29.87S
SANTA FE       CLOUDY    60   8  12 S13       29.76R
TRUTH OR CONSE PTCLDY    68  12  11 S18G29    29.70R
TUCUMCARI      CLEAR     57  47  69 NE20G32   29.75R
$$

USA.gov is the U.S. government's official web portal to all federal, state and local government web resources and services.